This is the latest recevied weather packets stored in our database for station/object KK4KTV-13. If no packets are shown the sender has not sent any weather packets the latest 10 day(s).
| Time | Temp. | Humidity | Pressure | Rain* | Wind** | Luminosity | Snow |
|---|---|---|---|---|---|---|---|
| 1778066106 | 13.89° C | 99% | 1008.2 hPa | 0 mm | - | 7 W/m² | - |
| 1778065803 | 13.89° C | 99% | 1008.1 hPa | 0 mm | - | 6 W/m² | - |
| 1778065501 | 13.89° C | 99% | 1008 hPa | 0 mm | - | 5 W/m² | - |
| 1778065197 | 14.44° C | 99% | 1007.8 hPa | 0 mm | - | 1 W/m² | - |
| 1778064894 | 14.44° C | 99% | 1007.7 hPa | 0 mm | - | 1 W/m² | - |
| 1778064591 | 14.44° C | 99% | 1007.6 hPa | 1.78 mm | - | 1 W/m² | - |
| 1778064289 | 14.44° C | 99% | 1007.6 hPa | 4.83 mm | - | 1 W/m² | - |
| 1778063987 | 15° C | 99% | 1007.7 hPa | 3.05 mm | - | 0 W/m² | - |
| 1778063684 | 15° C | 99% | 1007.5 hPa | 1.78 mm | - | 0 W/m² | - |
| 1778063381 | 15° C | 99% | 1007.8 hPa | 6.1 mm | - | 0 W/m² | - |
| 1778063079 | 15.56° C | 99% | 1007.5 hPa | 6.1 mm | - | 0 W/m² | - |
| 1778062776 | 15.56° C | 99% | 1007.3 hPa | 1.78 mm | - | 0 W/m² | - |
| 1778062472 | 15.56° C | 99% | 1007.3 hPa | 0 mm | - | 0 W/m² | - |
| 1778062170 | 15.56° C | 99% | 1007.4 hPa | 1.27 mm | - | 0 W/m² | - |
| 1778061868 | 15.56° C | 99% | 1007 hPa | 0 mm | - | 0 W/m² | - |
| 1778061565 | 16.11° C | 99% | 1006.9 hPa | 0 mm | - | 0 W/m² | - |
| 1778061264 | 16.11° C | 99% | 1007 hPa | 0 mm | - | 0 W/m² | - |
| 1778060959 | 16.11° C | 99% | 1007.1 hPa | 4.83 mm | - | 0 W/m² | - |
| 1778060658 | 16.11° C | 99% | 1007.1 hPa | 4.32 mm | - | 0 W/m² | - |
| 1778060356 | 16.11° C | 99% | 1007.2 hPa | 0 mm | - | 0 W/m² | - |
| 1778060053 | 16.11° C | 99% | 1007 hPa | 1.78 mm | - | 0 W/m² | - |
| 1778059751 | 16.11° C | 99% | 1007 hPa | 0 mm | - | 0 W/m² | - |
| 1778059449 | 16.11° C | 99% | 1006.7 hPa | 1.27 mm | - | 0 W/m² | - |
| 1778059144 | 16.11° C | 99% | 1006.5 hPa | 3.05 mm | - | 0 W/m² | - |
| 1778058843 | 16.11° C | 99% | 1007 hPa | 1.78 mm | - | 0 W/m² | - |
* Rain latest hour (hover to see other rain measurements)
** Current wind speed in m/s (hover to see current wind gust speed)